INTELSAT 20 (IS-20) (38740 NORAD) Tracking and Keplerian Element Data

This shows tracking and keplerian element data for the satellite.

Feedback or suggestion? Click here.




ElementValue
Catalog38740
NameINTELSAT 20 (IS-20)
Epoch Orbit2613
Epoch Day261.8373008
Epoch Year2019
RAAN163.2537
Inclination0.0158
Eccentricity0.0002625
Argument of Perigee21.028
Mean Anonmoly183.1108
Mean Motion1.00271333
Decay Rate-2.8E-07
L11 38740U 12043A 19261.83730080 -.00000028 00000-0 00000+0 0 9990
L22 38740 0.0158 163.2537 0002625 21.0280 183.1108 1.00271333 26137

Live tracking and technical data element details for INTELSAT 20 (IS-20) (NORAD 38740). INTELSAT 20 (IS-20) can be tracked NOW for your location showing map with azimuth and elevation plus other details from your city location.

Track the satellite on the map from your city or location and see movement details for azimuth, elevation, latitude, longitude, range, height, and movement on the map or in text.







IsCatalogInMostPopularTable: catalog: 38740, numindb: 331
Update: records affected: 1



GetName: 38740 INTELSAT 20 (IS-20)

Hit Count: updated at: Thu, 19 Sep 2019 17:00:32 GMT